Location: Unspecified
(64.9000°N, 0.0000°E)
Time: 08:42:56
(UTC+00:00)

Altair - Pass Details

Date: 21 June 2019
Orbit: 1501 x 1683 km, 47.2° (Epoch: 17 July)

Event Time Altitude Azimuth Distance (km) Brightness Sun altitude
Rises 01:27:30 0° 266° (W) 4,836 9.9 -0.1°
Reaches altitude 10° 01:31:36 10° 252° (WSW) 3,878 9.3 0.0°
Maximum altitude 01:38:14 21° 209° (SSW) 3,145 8.6 0.3°
Drops below altitude 10° 01:44:57 10° 167° (SSE) 3,936 9.2 0.6°
Sets 01:49:11 0° 152° (SSE) 4,930 9.8 0.7°
